Weather History for Cut Bank, MT

Change the Weather History Date:

Sunday, February 17, 2013

  Actual Average Record
Temperature  
Mean Temperature 31 °F 24 °F  
Max Temperature 37 °F 35 °F 58 °F (1930)
Min Temperature 24 °F 13 °F -39 °F (1936)
Degree Days  
Heating Degree Days 34 41  
Month to date heating degree days 519 707  
Since 1 July heating degree days 5262 5625  
Cooling Degree Days 0 0  
Month to date cooling degree days 0 0  
Year to date cooling degree days 0 0  
Moisture  
Dew Point 26 °F    
Average Humidity 74    
Maximum Humidity 92    
Minimum Humidity 56    
Precipitation  
Precipitation 0.01 in 0.00 in 0.33 in (1949)
Month to date precipitation 0.01 0.11  
Year to date precipitation 0.43 0.31  
Snow  
Snow 0.00 in - - ()
Snow Depth 0.00 in    
Sea Level Pressure  
Sea Level Pressure 29.86 in    
Wind  
Wind Speed 17 mph (NW)    
Max Wind Speed 31 mph    
Max Gust Speed 37 mph    
Visibility 6 miles    
Events Fog , Snow    
T = Trace of Precipitation, MM = Missing Value Source: NWS Daily Summary

Daily Weather History Graph

Daily Weather History Graph

Search for Another Location

Airport:

Trip Planner

Search our weather history database for the weather conditions in past years. The results will help you decide how hot, cold, wet, or windy it might be!

Date:

Astronomy

Feb. 17, 2013 Rise Set
Actual Time 7:32 AM MST 5:54 PM MST
Civil Twilight 7:00 AM MST 6:26 PM MST
Nautical Twilight 6:24 AM MST 7:03 PM MST
Astronomical Twilight 5:47 AM MST 7:39 PM MST
Moon 10:49 AM MST (2/17) 1:31 AM MST (2/17)
Length of Visible Light 11h 26m
Length of Day
10h 21m
Waxing Crescent, 49% of the Moon is Illuminated
Feb 17
Waxing Crescent
Feb 17
First Quarter
Feb 25
Full
Mar 4
Last Quarter
Mar 11
New

Hourly Weather History & Observations

Time (MST) Temp. Windchill Dew Point Humidity Pressure Visibility Wind Dir Wind Speed Gust Speed Precip Events Conditions
12:56 AM 36.0 °F 23.9 °F 21.9 °F 57% 29.66 in 10.0 mi West 25.3 mph 32.2 mph N/A   Clear
1:56 AM 34.0 °F 22.1 °F 24.1 °F 67% 29.68 in 10.0 mi WNW 21.9 mph - N/A   Clear
2:56 AM 34.0 °F 25.5 °F 21.9 °F 61% 29.70 in 10.0 mi WNW 11.5 mph - N/A   Overcast
3:56 AM 33.1 °F 23.0 °F 25.0 °F 72% 29.72 in 10.0 mi NNW 15.0 mph 20.7 mph N/A   Overcast
4:56 AM 30.9 °F 18.4 °F 27.0 °F 85% 29.74 in 10.0 mi NNW 20.7 mph 25.3 mph N/A   Overcast
5:03 AM 30.2 °F 16.8 °F 28.4 °F 93% 29.70 in 2.5 mi NNW 23.0 mph 27.6 mph 0.00 in Snow Light Snow
5:08 AM 30.2 °F 15.9 °F 28.4 °F 93% 29.71 in 1.0 mi NNW 26.5 mph 33.4 mph 0.00 in Snow Light Snow
5:15 AM 30.2 °F 17.4 °F 28.4 °F 93% 29.71 in 0.8 mi NNW 20.7 mph 33.4 mph 0.00 in Snow Light Snow
5:19 AM 30.2 °F 18.5 °F 28.4 °F 93% 29.71 in 1.0 mi NNW 17.3 mph - 0.00 in Snow Light Snow
5:26 AM 30.2 °F 18.1 °F 28.4 °F 93% 29.71 in 0.8 mi NNW 18.4 mph - 0.00 in Snow Light Snow
5:29 AM 30.2 °F 18.1 °F 28.4 °F 93% 29.72 in - NNW 18.4 mph 25.3 mph 0.00 in Snow Snow
5:36 AM 30.2 °F 17.4 °F 28.4 °F 93% 29.72 in 0.2 mi NW 20.7 mph 25.3 mph 0.00 in Fog , Snow Heavy Snow
5:47 AM 30.2 °F 16.8 °F 28.4 °F 93% 29.72 in 0.5 mi NW 23.0 mph 28.8 mph 0.00 in Fog , Snow Snow
5:56 AM 30.9 °F 17.8 °F 28.9 °F 92% 29.78 in 0.5 mi NNW 23.0 mph - 0.01 in Fog , Snow Snow
6:09 AM 30.2 °F 17.4 °F 28.4 °F 93% 29.72 in 1.0 mi NW 20.7 mph - 0.00 in Snow Light Snow
6:25 AM 30.2 °F 18.5 °F 28.4 °F 93% 29.73 in 2.0 mi NW 17.3 mph - 0.00 in Snow Light Snow
6:51 AM 30.2 °F 17.8 °F 28.4 °F 93% 29.74 in 1.2 mi NW 19.6 mph - 0.00 in Snow Light Snow
6:56 AM 30.9 °F 19.1 °F 28.9 °F 92% 29.80 in 2.0 mi NW 18.4 mph - 0.00 in Snow Light Snow
7:15 AM 30.2 °F 19.8 °F 28.4 °F 93% 29.74 in 3.0 mi WNW 13.8 mph - 0.00 in Snow Light Snow
7:56 AM 30.0 °F 17.2 °F 28.0 °F 92% 29.82 in 2.5 mi WNW 20.7 mph - 0.00 in Snow Light Snow
8:03 AM 30.2 °F 17.1 °F 28.4 °F 93% 29.75 in 0.8 mi WNW 21.9 mph - 0.00 in Snow Light Snow
8:24 AM 30.2 °F 17.1 °F 28.4 °F 93% 29.76 in 2.0 mi WNW 21.9 mph - 0.00 in Snow Light Snow
8:32 AM 30.2 °F 16.8 °F 28.4 °F 93% 29.76 in 3.0 mi NW 23.0 mph - 0.00 in Snow Light Snow
8:37 AM 30.2 °F 17.1 °F 28.4 °F 93% 29.76 in 1.8 mi NW 21.9 mph - 0.00 in Snow Light Snow
8:56 AM 30.9 °F 18.1 °F 28.0 °F 89% 29.85 in 3.0 mi NW 21.9 mph - 0.00 in Snow Light Snow
9:06 AM 30.2 °F 18.5 °F 28.4 °F 93% 29.77 in 6.0 mi NW 17.3 mph 27.6 mph 0.00 in Snow Light Snow
9:52 AM 30.2 °F 17.1 °F 26.6 °F 86% 29.79 in 10.0 mi NW 21.9 mph - 0.00 in   Overcast
9:56 AM 30.9 °F 17.8 °F 26.1 °F 82% 29.87 in 10.0 mi NW 23.0 mph 28.8 mph 0.00 in   Overcast
10:24 AM 30.2 °F 17.4 °F 24.8 °F 80% 29.80 in 10.0 mi NNW 20.7 mph - N/A   Scattered Clouds
10:56 AM 30.9 °F 18.4 °F 26.1 °F 82% 29.89 in 10.0 mi NNW 20.7 mph 26.5 mph N/A   Mostly Cloudy
11:56 AM 30.9 °F 18.1 °F 25.0 °F 79% 29.91 in 10.0 mi NNW 21.9 mph - N/A   Mostly Cloudy
12:37 PM 30.2 °F 16.8 °F 24.8 °F 80% 29.84 in 10.0 mi NNW 23.0 mph 27.6 mph N/A   Overcast
12:56 PM 30.9 °F 18.7 °F 25.0 °F 79% 29.91 in 10.0 mi NW 19.6 mph - N/A   Overcast
1:24 PM 30.2 °F 17.4 °F 26.6 °F 86% 29.84 in 10.0 mi NW 20.7 mph - N/A   Overcast
1:56 PM 30.9 °F 18.7 °F 26.1 °F 82% 29.92 in 10.0 mi NW 19.6 mph 26.5 mph N/A   Mostly Cloudy
2:12 PM 32.0 °F 20.1 °F 26.6 °F 80% 29.85 in 5.0 mi NW 19.6 mph 27.6 mph 0.00 in Snow Light Snow
2:56 PM 30.9 °F 18.4 °F 27.0 °F 85% 29.94 in 4.0 mi NNW 20.7 mph - 0.00 in Snow Light Snow
3:05 PM 30.2 °F 17.8 °F 26.6 °F 86% 29.86 in 1.8 mi NNW 19.6 mph - 0.00 in Snow Light Snow
3:24 PM 30.2 °F 18.5 °F 26.6 °F 86% 29.87 in 2.5 mi NNW 17.3 mph - 0.00 in Snow Light Snow
3:31 PM 30.2 °F 17.4 °F 26.6 °F 86% 29.87 in 4.0 mi North 20.7 mph - 0.00 in Snow Light Snow
3:48 PM 28.4 °F 15.4 °F 26.6 °F 93% 29.88 in 3.0 mi North 19.6 mph - 0.00 in Snow Light Snow
3:56 PM 28.9 °F 16.5 °F 26.1 °F 89% 29.98 in 4.0 mi North 18.4 mph 25.3 mph 0.00 in Snow Light Snow
4:11 PM 30.2 °F 18.1 °F 26.6 °F 86% 29.89 in 9.0 mi North 18.4 mph - 0.00 in   Overcast
4:22 PM 30.2 °F 18.1 °F 26.6 °F 86% 29.90 in 9.0 mi North 18.4 mph - 0.00 in   Overcast
4:49 PM 30.2 °F 18.9 °F 24.8 °F 80% 29.91 in 10.0 mi North 16.1 mph - 0.00 in   Overcast
4:56 PM 30.0 °F 19.1 °F 25.0 °F 82% 30.00 in 10.0 mi North 15.0 mph - 0.00 in   Overcast
5:56 PM 28.0 °F 15.3 °F 24.1 °F 85% 30.03 in 10.0 mi North 18.4 mph - N/A   Overcast
6:51 PM 26.6 °F 14.3 °F 21.2 °F 80% 29.96 in 9.0 mi North 16.1 mph - 0.00 in Snow Light Snow
6:56 PM 26.1 °F 14.0 °F 21.0 °F 81% 30.06 in 7.0 mi North 15.0 mph - 0.00 in Snow Light Snow
7:10 PM 26.6 °F 14.7 °F 21.2 °F 80% 29.96 in 9.0 mi North 15.0 mph - 0.00 in   Overcast
7:56 PM 25.0 °F 17.1 °F 21.0 °F 85% 30.08 in 10.0 mi North 6.9 mph - 0.00 in   Overcast
8:56 PM 25.0 °F 15.5 °F 21.0 °F 85% 30.10 in 9.0 mi WNW 9.2 mph - 0.00 in Snow Light Snow
9:56 PM 25.0 °F 15.5 °F 21.0 °F 85% 30.12 in 3.0 mi WNW 9.2 mph - 0.00 in Snow Light Snow
10:03 PM 24.8 °F 14.6 °F 21.2 °F 86% 30.01 in 2.0 mi WNW 10.4 mph - 0.00 in Snow Light Snow
10:17 PM 24.8 °F 15.3 °F 21.2 °F 86% 30.01 in 1.8 mi WNW 9.2 mph - 0.00 in Snow Light Snow
10:36 PM 24.8 °F 16.1 °F 21.2 °F 86% 30.01 in 2.0 mi WNW 8.1 mph - 0.00 in Snow Light Snow
10:42 PM 24.8 °F 16.1 °F 21.2 °F 86% 30.01 in 3.0 mi WNW 8.1 mph - 0.00 in Snow Light Snow
10:56 PM 25.0 °F 17.1 °F 21.9 °F 88% 30.12 in 6.0 mi WNW 6.9 mph - 0.00 in Snow Light Snow
11:56 PM 24.1 °F 15.2 °F 21.0 °F 88% 30.13 in 10.0 mi West 8.1 mph - 0.00 in   Overcast